Weather Roundup
Issued by NWS Corpus Christi, TX

Home | Current Version | Previous Version | Text Only | Print | Product List | Glossary On
Versions: 1 2 3 4 5 6 7 8 9 10 11 12 13 14 15 16 17 18 19 20 21 22 23 24 25 26 27 28 29 30 31 32 33 34 35 36 37 38 39 40 41 42 43 44 45 46 47 48 49 50
798
ASUS44 KCRP 221210
HRRCRP

SOUTH TEXAS REGIONAL WEATHER ROUNDUP
NATIONAL WEATHER SERVICE CORPUS CHRISTI TX
600 AM CST WED JAN 22 2020


TXZ229>244-221300-
...CORPUS CHRISTI AREA OBSERVATIONS...

CITY           SKY/WX    TMP DP  RH WIND       PRES   REMARKS
CORPUS CHRISTI LGT RAIN  60  59  96 SE8       30.07F FOG
NAS CORPUS CHR LGT RAIN  60  60 100 SE14      30.06F FOG
ROCKPORT       LGT RAIN  63  56  78 SE12G20   30.07F
KINGSVILLE NAS CLOUDY    60  58  92 SE8       30.05F
ALICE          LGT RAIN  59  57  93 SE7       30.04F FOG
$$

...VICTORIA AREA OBSERVATIONS...

CITY           SKY/WX    TMP DP  RH WIND       PRES   REMARKS
PORT LAVACA    NOT AVBL
VICTORIA       LGT RAIN  52  50  93 E10       30.13S FOG
BEEVILLE       NOT AVBL
PLEASANTON     RAIN      50  49  95 E9        30.09F
SAN ANTONIO    LGT RAIN  50  48  93 SE12      30.07F
$$

...LAREDO AREA OBSERVATIONS...

CITY           SKY/WX    TMP DP  RH WIND       PRES   REMARKS
LAREDO         LGT RAIN  55  54  96 E12       30.01F FOG
COTULLA        LGT RAIN  53  52  96 E10       30.06F
DEL RIO        CLOUDY    53  51  93 SE9       30.01F
MCALLEN        CLOUDY    63  59  87 SE8       30.02S
HEBBRONVILLE   CLOUDY    56  55  97 SE7       30.03F
$$

...OTHER TEXAS OBSERVATIONS...

CITY           SKY/WX    TMP DP  RH WIND       PRES   REMARKS
BROWNSVILLE    LGT RAIN  66  59  78 S13       30.02F
HOUSTON        LGT RAIN  45  37  73 E16       30.18F
COL. STATION   LGT RAIN  45  41  86 E10       30.14F
AUSTIN         LGT RAIN  49  47  93 SE8       30.09S
TEMPLE         LGT RAIN  44  44 100 SE14      30.11F
WACO           CLOUDY    43  40  89 SE14      30.12F
FORT WORTH     CLOUDY    39  38  96 SE18G24   30.09F WCI  30
WICHITA FALLS  LGT RAIN  42  42 100 S14       29.99F FOG
LUBBOCK        CLOUDY    42  39  89 SW15      29.87F
EL PASO        PTCLDY    48  42  80 SW6       30.01S
$$

...MARINE OBSERVATIONS...

STATION/POSITION TIME  SKY/WX   TEMP    WIND        PRES    VSBY  WAVE   SWELL
                                AIR SEA DIR/SP/G                  HT/PER HT/PER
                 (UTC)          (F)     (DEG/KT/KT) (MB)    (MI)  (FT/S) (FT/S)
PORT ARANSAS     1200            61 61  130/ 18/ 20 1017.8F
BUOY 90 E PORT A 1150            64 71  130/ 21/ 25 1020.0F         5/ 5   2/ 9
BUOY 45 SE BAFFI 1150            67 67  140/ 21/ 25 1017.5F         8/ 7   2/14
BUOY 200 E PT IS 1150            63     130/ 14/ 17 1021.7F         5/ 7   3/ 7
BUOY 15 E GALVES 1150                               1023.3F
$$




USA.gov is the U.S. government's official web portal to all federal, state and local government web resources and services.